Hourly Weather Roundup
Issued by NWS Central Illinois

Home | Current Version | Previous Version | Text Only | Print | Product List | Glossary On
Versions: 1 2 3 4 5 6 7 8 9 10 11 12 13 14 15 16 17 18 19 20 21 22 23 24 25 26 27 28 29 30 31 32 33 34 35 36 37 38 39 40 41 42 43 44 45 46 47 48 49 50
000
NZUS43 KILX 191010
HWRILX

AREA WEATHER ROUNDUP
NATIONAL WEATHER SERVICE, LINCOLN IL
500 AM CDT SUN APR 19 2015


CITY           SKY/WX    TMP DP  RH WIND       PRES   REMARKS
BLOOMINGTON    CLOUDY    57  50  78 E12       29.82F
CHAMPAIGN      CLOUDY    58  50  75 E10       29.80F
DECATUR        MOCLDY    57  49  74 E10       29.78F
EFFINGHAM      CLOUDY    64  45  50 NE6       29.77F
FLORA          LGT RAIN  59  53  79 CALM      29.76F
GALESBURG      MOCLDY    54  43  67 E7        29.78F
JACKSONVILLE   CLOUDY    60  50  69 E7        29.75F
LACON          MOCLDY    54  43  66 E8        29.80F
LAWRENCEVILLE  CLOUDY    64  49  57 NE5       29.76F
LITCHFIELD     PTCLDY    61  47  59 E8        29.74F
$$


CITY           SKY/WX    TMP DP  RH WIND       PRES   REMARKS
LINCOLN        CLOUDY    58  49  71 E7        29.76F
MACOMB         MOCLDY    54  48  81 NE6       29.79F
MATTOON        CLOUDY    63  47  55 E8        29.77F
MT CARMEL AP   LGT RAIN  63  54  72 CALM      29.76S
OLNEY-NOBLE AP LGT RAIN  61  50  67 E5        29.76S
PARIS          CLOUDY    58  52  79 NE7       29.80F
PEORIA         CLOUDY    58  45  62 E13       29.78F
PONTIAC        CLOUDY    55  43  62 E15       29.84F
RANTOUL        CLOUDY    58  48  69 E13       29.82F
ROBINSON       CLOUDY    63  48  59 E7        29.78F
SPRINGFIELD    MOCLDY    57  48  72 E6        29.76F
TAYLORVILLE    PTCLDY    59  48  67 E6        29.76F
$$

...REGIONAL REPORTS...


CITY           SKY/WX    TMP DP  RH WIND       PRES   REMARKS
CHICAGO O`HARE MOCLDY    53  29  39 E9        29.88F
KANKAKEE       MOCLDY    53  38  57 E10       29.87F
MOLINE         MOCLDY    52  39  61 E5        29.80F
MOUNT VERNON   CLOUDY    61  52  72 CALM      29.76S
PITTSFIELD     MOCLDY    62  50  64 CALM      29.75F
QUINCY         PTCLDY    55  52  89 NE6       29.74F
ROCKFORD       MOCLDY    54  30  40 E8        29.88F
$$


CITY           SKY/WX    TMP DP  RH WIND       PRES   REMARKS
BURLINGTON     CLOUDY    58  53  84 NE5       29.77F
CEDAR RAPIDS   CLOUDY    51  45  79 E5        29.78F
DES MOINES     CLOUDY    59  56  89 CALM      29.76F
KIRKSVILLE     FOG       53  53 100 CALM      29.75F VSB 3/4
OTTUMWA        CLOUDY    57  56  96 NE7       29.75F
ST LOUIS       MOCLDY    64  52  64 CALM      29.72F
$$


CITY           SKY/WX    TMP DP  RH WIND       PRES   REMARKS
TERRE HAUTE    CLOUDY    62  49  62 E8        29.79F
EVANSVILLE     LGT RAIN  61  58  90 N3        29.75F
INDIANAPOLIS   CLOUDY    61  46  57 E14       29.82F
LAFAYETTE      CLOUDY    53  40  61 E10       29.86F
MADISON        PTCLDY    51  31  46 SE9       29.87F
MILWAUKEE      CLOUDY    44  31  60 E9        29.95F
$$




USA.gov is the U.S. government's official web portal to all federal, state and local government web resources and services.